Regional Weather Roundup
Issued by NWS Little Rock, AR

Home | Current Version | Previous Version | Text Only | Print | Product List | Glossary On
Versions: 1 2 3 4 5 6 7 8 9 10 11 12 13 14 15 16 17 18 19 20 21 22 23 24 25 26 27 28 29 30 31 32 33 34 35 36 37 38 39 40 41 42 43 44 45 46 47 48 49 50
000
ASUS44 KLZK 311005
RWRLZK

WEATHER ROUNDUP FOR ARKANSAS
NATIONAL WEATHER SERVICE LITTLE ROCK AR
500 AM CDT TUE MAY 31 2016

NOTE: "FAIR" INDICATES FEW OR NO CLOUDS BELOW 12,000 FEET WITH NO
SIGNIFICANT WEATHER AND/OR OBSTRUCTIONS TO VISIBILITY.

ARZ001-003-010-029-311100-
NORTHWEST ARKANSAS

CITY           SKY/WX    TMP DP  RH WIND       PRES   REMARKS
FAYETTEVILLE   CLOUDY    59  59 100 CALM      29.96R FOG
FORT SMITH     CLOUDY    66  63  90 E7        29.92S
HARRISON       CLOUDY    64  62  93 SE6       29.96R
BENTONVILLE    CLOUDY    63  59  88 CALM      29.96R
ROGERS           N/A     64  62  93 SE5       29.97R
SILOAM SPGS    CLOUDY    63  55  77 CALM      29.97R
HIGHFILL       CLOUDY    62  62 100 CALM      29.95S FOG
$$

ARZ004-005-016-311100-
NORTH CENTRAL ARKANSAS

CITY           SKY/WX    TMP DP  RH WIND       PRES   REMARKS
BATESVILLE     CLOUDY    64  64 100 CALM      29.95R
FLIPPIN        CLOUDY   N/A N/A N/A CALM      29.93R
MTN HOME       CLOUDY    64  63  96 NE3       29.95R FOG
$$

ARZ040-041-311100-
WEST CENTRAL ARKANSAS

CITY           SKY/WX    TMP DP  RH WIND       PRES   REMARKS
MENA           CLOUDY    68  64  88 CALM      29.95S
MOUNT IDA      CLOUDY    65  63  93 CALM      29.92S FOG
$$

ARZ009-017-025-026-028-311100-
NORTHEAST ARKANSAS

CITY           SKY/WX    TMP DP  RH WIND       PRES   REMARKS
CORNING          N/A     68  68 100 SW14      29.97R
JONESBORO      CLOUDY    69  66  90 NE5       29.93F
NEWPORT        CLOUDY    69  69 100 NE3       29.95R
WALNUT RIDGE   CLOUDY    68  63  83 NE7       29.94S
BLYTHEVILLE    CLOUDY    71  67  87 NW3       29.95R
$$

ARZ022-023-033-042-044-311100-
CENTRAL ARKANSAS

CITY           SKY/WX    TMP DP  RH WIND       PRES   REMARKS
LITTLE ROCK    CLOUDY    67  64  90 CALM      29.96R
N LITTLE ROCK    N/A     65  63  96 S3        29.94R
JACKSONVILLE   CLOUDY    66  66 100 CALM      29.95R
SEARCY         CLOUDY    66  66 100 VRB3      29.97R
HOT SPRINGS    CLOUDY    65  63  93 CALM      29.94S
RUSSELLVILLE   CLOUDY    66  64  93 CALM      29.94R
CLINTON        MOCLDY    64  64 100 CALM      29.96R
$$

ARZ036-311100-
EAST ARKANSAS

CITY           SKY/WX    TMP DP  RH WIND       PRES   REMARKS
WEST MEMPHIS   CLOUDY    71  66  84 CALM      29.93R
$$

ARZ050-053-066-070-073-311100-
SOUTHWEST ARKANSAS

CITY           SKY/WX    TMP DP  RH WIND       PRES   REMARKS
ARKADELPHIA    FAIR      65  65 100 VRB3      29.93F
CAMDEN         LGT RAIN  66  64  94 CALM      29.92F
TEXARKANA      CLOUDY    67  66  97 SE3       29.91S
EL DORADO      CLOUDY    68  68 100 SE3       29.92F
DE QUEEN       CLOUDY    67  66  97 E3        29.90S
$$

ARZ056-057-069-311100-
SOUTHEAST ARKANSAS

CITY           SKY/WX    TMP DP  RH WIND       PRES   REMARKS
STUTTGART      CLOUDY    70  63  78 SW9       29.97R
MONTICELLO     TSTM      68  66  93 NW5       29.96R FOG

$$





USA.gov is the U.S. government's official web portal to all federal, state and local government web resources and services.